Data No.,UTC Date,UTC Time,Latitude,Longitude,Course(deg),Temp(degC),Sal(psu)
9246,2004/6/28,15:22:00,00-00.0700N,151-12.1800E,326,29.696,34.2315
9247,2004/6/28,15:23:00,00-00.2400N,151-12.0700E,326,29.658,34.2326
9248,2004/6/28,15:24:00,00-00.4100N,151-11.9500E,327,29.644,34.2315
9249,2004/6/28,15:25:00,00-00.5900N,151-11.8400E,327,29.639,34.2287
9250,2004/6/28,15:26:00,00-00.7600N,151-11.7300E,327,29.639,34.229
9251,2004/6/28,15:27:00,00-00.9300N,151-11.6200E,327,29.648,34.227
9252,2004/6/28,15:28:00,00-01.1100N,151-11.5100E,327,29.658,34.228
9253,2004/6/28,15:29:00,00-01.2800N,151-11.4000E,327,29.645,34.2294
9254,2004/6/28,15:30:00,00-01.4500N,151-11.2900E,327,29.644,34.2302
9255,2004/6/28,15:31:00,00-01.6300N,151-11.1800E,327,29.655,34.2295
9256,2004/6/28,15:32:00,00-01.8000N,151-11.0700E,327,29.653,34.2294
9257,2004/6/28,15:33:00,00-01.9800N,151-10.9600E,327,29.646,34.2312
9258,2004/6/28,15:34:00,00-02.1700N,151-10.8400E,327,29.66,34.2304
9259,2004/6/28,15:35:00,00-02.3400N,151-10.7300E,327,29.663,34.2307
9260,2004/6/28,15:36:00,00-02.5200N,151-10.6200E,326,29.666,34.2318
9261,2004/6/28,15:37:00,00-02.6900N,151-10.5000E,326,29.652,34.2322
9262,2004/6/28,15:38:00,00-02.8600N,151-10.3900E,327,29.641,34.2327
9263,2004/6/28,15:39:00,00-03.0400N,151-10.2800E,327,29.642,34.2317
9264,2004/6/28,15:40:00,00-03.2200N,151-10.1700E,327,29.637,34.2319
9265,2004/6/28,15:41:00,00-03.4000N,151-10.0500E,327,29.629,34.2327
9266,2004/6/28,15:42:00,00-03.5700N,151-09.9400E,327,29.623,34.2316
9267,2004/6/28,15:43:00,00-03.7500N,151-09.8300E,327,29.63,34.233
9268,2004/6/28,15:44:00,00-03.9300N,151-09.7200E,327,29.652,34.2328
9269,2004/6/28,15:45:00,00-04.1100N,151-09.6100E,327,29.654,34.2344
9270,2004/6/28,15:46:00,00-04.2800N,151-09.5000E,327,29.689,34.2359
9271,2004/6/28,15:47:00,00-04.4600N,151-09.3800E,327,29.707,34.2373
9272,2004/6/28,15:48:00,00-04.6300N,151-09.2700E,327,29.719,34.2385
9273,2004/6/28,15:49:00,00-04.8100N,151-09.1600E,327,29.733,34.2407
9274,2004/6/28,15:50:00,00-04.9900N,151-09.0500E,327,29.717,34.2408
9275,2004/6/28,15:51:00,00-05.1600N,151-08.9300E,325,29.728,34.2391
9276,2004/6/28,15:52:00,00-05.3300N,151-08.8200E,325,29.73,34.2426
9277,2004/6/28,15:53:00,00-05.5000N,151-08.7000E,326,29.694,34.2425
9278,2004/6/28,15:54:00,00-05.6800N,151-08.5800E,325,29.666,34.2427
9279,2004/6/28,15:55:00,00-05.8500N,151-08.4700E,325,29.666,34.2412
9280,2004/6/28,15:56:00,00-06.0300N,151-08.3400E,325,29.669,34.2407
9281,2004/6/28,15:57:00,00-06.2000N,151-08.2200E,325,29.664,34.2431
9282,2004/6/28,15:58:00,00-06.3700N,151-08.1000E,325,29.7,34.2453
9283,2004/6/28,15:59:00,00-06.5500N,151-07.9900E,325,29.708,34.2478
9284,2004/6/28,16:00:00,00-06.7200N,151-07.8700E,325,29.715,34.2522
9285,2004/6/28,16:01:00,00-06.8800N,151-07.7500E,325,29.663,34.2525
9286,2004/6/28,16:02:00,00-07.0600N,151-07.6300E,325,29.674,34.252
9287,2004/6/28,16:03:00,00-07.2300N,151-07.5200E,324,29.666,34.2495
9288,2004/6/28,16:04:00,00-07.4000N,151-07.4000E,325,29.675,34.2518
9289,2004/6/28,16:05:00,00-07.5700N,151-07.2800E,325,29.674,34.2512
9290,2004/6/28,16:06:00,00-07.7400N,151-07.1600E,325,29.661,34.2532
9291,2004/6/28,16:07:00,00-07.9100N,151-07.0500E,325,29.674,34.2548
9292,2004/6/28,16:08:00,00-08.0800N,151-06.9300E,325,29.7,34.2564
9293,2004/6/28,16:09:00,00-08.2600N,151-06.8100E,325,29.724,34.2592
9294,2004/6/28,16:10:00,00-08.4300N,151-06.7000E,324,29.747,34.2627
9295,2004/6/28,16:11:00,00-08.6000N,151-06.5800E,325,29.728,34.2693
9296,2004/6/28,16:12:00,00-08.7700N,151-06.4600E,325,29.748,34.2695
9297,2004/6/28,16:13:00,00-08.9400N,151-06.3400E,325,29.758,34.2716
9298,2004/6/28,16:14:00,00-09.1100N,151-06.2200E,325,29.731,34.2792
9299,2004/6/28,16:15:00,00-09.2800N,151-06.1100E,326,29.72,34.2776
9300,2004/6/28,16:16:00,00-09.4500N,151-05.9900E,325,29.735,34.2783
9301,2004/6/28,16:17:00,00-09.6300N,151-05.8700E,325,29.735,34.2801
9302,2004/6/28,16:18:00,00-09.8100N,151-05.7500E,324,29.739,34.284
9303,2004/6/28,16:19:00,00-09.9800N,151-05.6300E,324,29.767,34.2863
9304,2004/6/28,16:20:00,00-10.1500N,151-05.5100E,325,29.755,34.2881
9305,2004/6/28,16:21:00,00-10.3200N,151-05.3900E,325,29.75,34.2889
9306,2004/6/28,16:22:00,00-10.4900N,151-05.2800E,325,29.739,34.29
9307,2004/6/28,16:23:00,00-10.6600N,151-05.1600E,324,29.719,34.2895
9308,2004/6/28,16:24:00,00-10.8300N,151-05.0400E,324,29.679,34.2922
9309,2004/6/28,16:25:00,00-11.0000N,151-04.9200E,325,29.688,34.2913
9310,2004/6/28,16:26:00,00-11.1700N,151-04.8000E,324,29.741,34.29
9311,2004/6/28,16:27:00,00-11.3400N,151-04.6800E,324,29.716,34.2942
9312,2004/6/28,16:28:00,00-11.5100N,151-04.5600E,325,29.69,34.2956
9313,2004/6/28,16:29:00,00-11.6700N,151-04.4500E,324,29.685,34.2922
9314,2004/6/28,16:30:00,00-11.8500N,151-04.3300E,324,29.717,34.2909
9315,2004/6/28,16:31:00,00-12.0200N,151-04.2100E,324,29.723,34.2904
9316,2004/6/28,16:32:00,00-12.1800N,151-04.0900E,325,29.711,34.2942
9317,2004/6/28,16:33:00,00-12.3500N,151-03.9700E,324,29.685,34.2962
9318,2004/6/28,16:34:00,00-12.5200N,151-03.8600E,325,29.66,34.295
9319,2004/6/28,16:35:00,00-12.6900N,151-03.7400E,325,29.691,34.2932
9320,2004/6/28,16:36:00,00-12.8600N,151-03.6200E,325,29.697,34.2917
9321,2004/6/28,16:37:00,00-13.0300N,151-03.5100E,325,29.738,34.2958
9322,2004/6/28,16:38:00,00-13.2000N,151-03.3900E,325,29.723,34.2987
9323,2004/6/28,16:39:00,00-13.3800N,151-03.2600E,324,29.725,34.3024
9324,2004/6/28,16:40:00,00-13.5500N,151-03.1400E,324,29.704,34.3034
9325,2004/6/28,16:41:00,00-13.7200N,151-03.0300E,325,29.679,34.3041
9326,2004/6/28,16:42:00,00-13.8800N,151-02.9100E,325,29.701,34.3075
9327,2004/6/28,16:43:00,00-14.0600N,151-02.7900E,325,29.717,34.3128
9328,2004/6/28,16:44:00,00-14.2300N,151-02.6800E,326,29.715,34.3166
9329,2004/6/28,16:45:00,00-14.4000N,151-02.5700E,326,29.742,34.3168
9330,2004/6/28,16:46:00,00-14.5700N,151-02.4600E,325,29.731,34.3203
9331,2004/6/28,16:47:00,00-14.7300N,151-02.3400E,325,29.74,34.3248
9332,2004/6/28,16:48:00,00-14.9000N,151-02.2300E,325,29.733,34.324
9333,2004/6/28,16:49:00,00-15.0700N,151-02.1100E,326,29.707,34.3247
9334,2004/6/28,16:50:00,00-15.2400N,151-02.0000E,326,29.708,34.3245
9335,2004/6/28,16:51:00,00-15.4100N,151-01.8800E,325,29.742,34.325
9336,2004/6/28,16:52:00,00-15.5800N,151-01.7700E,325,29.749,34.3266
9337,2004/6/28,16:53:00,00-15.7500N,151-01.6500E,324,29.75,34.3285
9338,2004/6/28,16:54:00,00-15.9100N,151-01.5400E,325,29.8,34.3264
9339,2004/6/28,16:55:00,00-16.0800N,151-01.4200E,325,29.795,34.3291
9340,2004/6/28,16:56:00,00-16.2500N,151-01.3100E,325,29.782,34.3313
9341,2004/6/28,16:57:00,00-16.4200N,151-01.1900E,324,29.752,34.3304
9342,2004/6/28,16:58:00,00-16.5900N,151-01.0800E,325,29.738,34.3326
9343,2004/6/28,16:59:00,00-16.7500N,151-00.9600E,325,29.75,34.3315
9344,2004/6/28,17:00:00,00-16.9200N,151-00.8500E,325,29.739,34.3327
9345,2004/6/28,17:01:00,00-17.1000N,151-00.7300E,325,29.71,34.3336
9346,2004/6/28,17:02:00,00-17.2700N,151-00.6100E,325,29.756,34.3326
9347,2004/6/28,17:03:00,00-17.4400N,151-00.4900E,325,29.781,34.3304
9348,2004/6/28,17:04:00,00-17.6000N,151-00.3800E,324,29.772,34.3337
9349,2004/6/28,17:05:00,00-17.7700N,151-00.2700E,325,29.746,34.3333
9350,2004/6/28,17:06:00,00-17.9400N,151-00.1500E,325,29.731,34.3328
9351,2004/6/28,17:07:00,00-18.1000N,151-00.0400E,325,29.727,34.3319
9352,2004/6/28,17:08:00,00-18.2700N,150-59.9300E,325,29.751,34.332
9353,2004/6/28,17:09:00,00-18.4500N,150-59.8100E,325,29.78,34.3305
9354,2004/6/28,17:10:00,00-18.6100N,150-59.7000E,325,29.743,34.3318
9355,2004/6/28,17:11:00,00-18.7800N,150-59.5800E,325,29.793,34.3306
9356,2004/6/28,17:12:00,00-18.9500N,150-59.4700E,325,29.783,34.3293
9357,2004/6/28,17:13:00,00-19.1200N,150-59.3500E,325,29.742,34.3313
9358,2004/6/28,17:14:00,00-19.2900N,150-59.2400E,325,29.762,34.3301
9359,2004/6/28,17:15:00,00-19.4500N,150-59.1200E,325,29.758,34.3276
9360,2004/6/28,17:16:00,00-19.6200N,150-59.0100E,325,29.722,34.3256
9361,2004/6/28,17:17:00,00-19.7900N,150-58.9000E,325,29.8,34.3237
9362,2004/6/28,17:18:00,00-19.9600N,150-58.7800E,325,29.802,34.3249
9363,2004/6/28,17:19:00,00-20.1200N,150-58.6700E,325,29.762,34.3252
9364,2004/6/28,17:20:00,00-20.2900N,150-58.5500E,325,29.749,34.3245
9365,2004/6/28,17:21:00,00-20.4600N,150-58.4400E,326,29.707,34.322
9366,2004/6/28,17:22:00,00-20.6400N,150-58.3200E,326,29.696,34.3195
9367,2004/6/28,17:23:00,00-20.8100N,150-58.2100E,325,29.714,34.3193
9368,2004/6/28,17:24:00,00-20.9700N,150-58.1000E,325,29.686,34.3167
9369,2004/6/28,17:25:00,00-21.1400N,150-57.9800E,325,29.66,34.3152
9370,2004/6/28,17:26:00,00-21.3100N,150-57.8700E,325,29.728,34.3134
9371,2004/6/28,17:27:00,00-21.4800N,150-57.7600E,325,29.753,34.3113
9372,2004/6/28,17:28:00,00-21.6400N,150-57.6500E,325,29.777,34.3093
9373,2004/6/28,17:29:00,00-21.8100N,150-57.5300E,326,29.703,34.3071
9374,2004/6/28,17:30:00,00-21.9800N,150-57.4200E,326,29.662,34.3051
9375,2004/6/28,17:31:00,00-22.1400N,150-57.3200E,326,29.624,34.302
9376,2004/6/28,17:32:00,00-22.3100N,150-57.2100E,326,29.623,34.2999
9377,2004/6/28,17:33:00,00-22.4700N,150-57.0900E,325,29.597,34.2973
9378,2004/6/28,17:34:00,00-22.6400N,150-56.9800E,323,29.682,34.2948
9379,2004/6/28,17:35:00,00-22.8000N,150-56.8600E,323,29.712,34.2953
9380,2004/6/28,17:36:00,00-22.9600N,150-56.7400E,324,29.697,34.3002
9381,2004/6/28,17:37:00,00-23.1200N,150-56.6300E,324,29.659,34.3017
9382,2004/6/28,17:38:00,00-23.2800N,150-56.5100E,323,29.656,34.3017
9383,2004/6/28,17:39:00,00-23.4400N,150-56.4000E,323,29.641,34.3002
9384,2004/6/28,17:40:00,00-23.6000N,150-56.2800E,324,29.631,34.3034
9385,2004/6/28,17:41:00,00-23.7600N,150-56.1700E,324,29.659,34.3021
9386,2004/6/28,17:42:00,00-23.9300N,150-56.0500E,324,29.664,34.3052
9387,2004/6/28,17:43:00,00-24.0900N,150-55.9300E,324,29.675,34.3049
9388,2004/6/28,17:44:00,00-24.2600N,150-55.8100E,323,29.726,34.3032
9389,2004/6/28,17:45:00,00-24.4200N,150-55.6900E,323,29.688,34.3046
9390,2004/6/28,17:46:00,00-24.5900N,150-55.5800E,324,29.643,34.3047
9391,2004/6/28,17:47:00,00-24.7500N,150-55.4600E,324,29.641,34.3018
9392,2004/6/28,17:48:00,00-24.9100N,150-55.3400E,323,29.629,34.3011
9393,2004/6/28,17:49:00,00-25.0700N,150-55.2300E,323,29.609,34.3005
9394,2004/6/28,17:50:00,00-25.2300N,150-55.1100E,324,29.593,34.2995
9395,2004/6/28,17:51:00,00-25.4000N,150-55.0000E,324,29.599,34.2979
9396,2004/6/28,17:52:00,00-25.5600N,150-54.8800E,324,29.59,34.2968
9397,2004/6/28,17:53:00,00-25.7200N,150-54.7700E,324,29.594,34.2938
9398,2004/6/28,17:54:00,00-25.8800N,150-54.6600E,324,29.582,34.2895
9399,2004/6/28,17:55:00,00-26.0400N,150-54.5400E,323,29.592,34.2859
9400,2004/6/28,17:56:00,00-26.2000N,150-54.4200E,323,29.583,34.2837
9401,2004/6/28,17:57:00,00-26.3600N,150-54.3100E,324,29.577,34.2839
9402,2004/6/28,17:58:00,00-26.5200N,150-54.1900E,324,29.579,34.2843
9403,2004/6/28,17:59:00,00-26.6800N,150-54.0800E,324,29.591,34.2826
9404,2004/6/28,18:00:00,00-26.8400N,150-53.9700E,324,29.602,34.2827
9405,2004/6/28,18:01:00,00-27.0000N,150-53.8500E,324,29.614,34.2835
9406,2004/6/28,18:02:00,00-27.1600N,150-53.7400E,323,29.609,34.2817
9407,2004/6/28,18:03:00,00-27.3200N,150-53.6200E,324,29.624,34.2798
9408,2004/6/28,18:04:00,00-27.4800N,150-53.5100E,324,29.588,34.2765
9409,2004/6/28,18:05:00,00-27.6400N,150-53.4000E,323,29.595,34.2747
9410,2004/6/28,18:06:00,00-27.8100N,150-53.2700E,323,29.607,34.2727
9411,2004/6/28,18:07:00,00-27.9700N,150-53.1600E,324,29.586,34.2717
9412,2004/6/28,18:08:00,00-28.1300N,150-53.0500E,324,29.582,34.2701
9413,2004/6/28,18:09:00,00-28.2900N,150-52.9300E,323,29.589,34.2675
9414,2004/6/28,18:10:00,00-28.4500N,150-52.8200E,323,29.574,34.2683
9415,2004/6/28,18:11:00,00-28.6100N,150-52.7000E,324,29.586,34.2688
9416,2004/6/28,18:12:00,00-28.7700N,150-52.5900E,323,29.579,34.2677
9417,2004/6/28,18:13:00,00-28.9300N,150-52.4700E,323,29.577,34.2685
9418,2004/6/28,18:14:00,00-29.0900N,150-52.3500E,324,29.558,34.2698
9419,2004/6/28,18:15:00,00-29.2500N,150-52.2400E,324,29.512,34.2723
9420,2004/6/28,18:16:00,00-29.4200N,150-52.1300E,324,29.506,34.2697
9421,2004/6/28,18:17:00,00-29.5800N,150-52.0100E,324,29.503,34.2687
9422,2004/6/28,18:18:00,00-29.7400N,150-51.9000E,324,29.515,34.2692
9423,2004/6/28,18:19:00,00-29.9000N,150-51.7800E,324,29.505,34.2709
9424,2004/6/28,18:20:00,00-30.0600N,150-51.6700E,323,29.516,34.2723
9425,2004/6/28,18:21:00,00-30.2200N,150-51.5500E,324,29.53,34.2752
9426,2004/6/28,18:22:00,00-30.3800N,150-51.4400E,323,29.526,34.2759
9427,2004/6/28,18:23:00,00-30.5400N,150-51.3200E,323,29.519,34.2801
9428,2004/6/28,18:24:00,00-30.7000N,150-51.2100E,323,29.507,34.2797
9429,2004/6/28,18:25:00,00-30.8600N,150-51.0900E,324,29.51,34.2822
9430,2004/6/28,18:26:00,00-31.0200N,150-50.9700E,324,29.511,34.2837
9431,2004/6/28,18:27:00,00-31.1800N,150-50.8600E,324,29.534,34.2855
9432,2004/6/28,18:28:00,00-31.3500N,150-50.7400E,323,29.542,34.2897
9433,2004/6/28,18:29:00,00-31.5200N,150-50.6200E,324,29.517,34.2914
9434,2004/6/28,18:30:00,00-31.6700N,150-50.5000E,323,29.531,34.293
9435,2004/6/28,18:31:00,00-31.8300N,150-50.3900E,323,29.536,34.2927
9436,2004/6/28,18:32:00,00-31.9900N,150-50.2700E,323,29.516,34.2941
9437,2004/6/28,18:33:00,00-32.1500N,150-50.1500E,323,29.533,34.2956
9438,2004/6/28,18:34:00,00-32.3100N,150-50.0400E,323,29.541,34.2945
9439,2004/6/28,18:35:00,00-32.4700N,150-49.9200E,323,29.551,34.2979
9440,2004/6/28,18:36:00,00-32.6300N,150-49.8000E,323,29.567,34.3002
9441,2004/6/28,18:37:00,00-32.7900N,150-49.6900E,323,29.587,34.3034
9442,2004/6/28,18:38:00,00-32.9500N,150-49.5700E,324,29.615,34.3057
9443,2004/6/28,18:39:00,00-33.1100N,150-49.4500E,324,29.654,34.3097
9444,2004/6/28,18:40:00,00-33.2700N,150-49.3400E,324,29.652,34.313
9445,2004/6/28,18:41:00,00-33.4300N,150-49.2300E,324,29.64,34.3158
9446,2004/6/28,18:42:00,00-33.5900N,150-49.1100E,323,29.701,34.3155
9447,2004/6/28,18:43:00,00-33.7500N,150-48.9900E,323,29.74,34.3199
9448,2004/6/28,18:44:00,00-33.9100N,150-48.8800E,323,29.817,34.3293
9449,2004/6/28,18:45:00,00-34.0700N,150-48.7600E,323,29.833,34.345
9450,2004/6/28,18:46:00,00-34.2300N,150-48.6500E,323,29.824,34.3525
9451,2004/6/28,18:47:00,00-34.3800N,150-48.5300E,322,29.875,34.353
9452,2004/6/28,18:48:00,00-34.5400N,150-48.4100E,322,29.937,34.3609
9453,2004/6/28,18:49:00,00-34.7000N,150-48.2800E,321,29.839,34.372
9454,2004/6/28,18:50:00,00-34.8600N,150-48.1600E,321,29.749,34.3854
9455,2004/6/28,18:51:00,00-35.0100N,150-48.0400E,321,29.675,34.3866
9456,2004/6/28,18:52:00,00-35.1700N,150-47.9200E,321,29.782,34.3769
9457,2004/6/28,18:53:00,00-35.3200N,150-47.8000E,321,29.72,34.369
9458,2004/6/28,18:54:00,00-35.4700N,150-47.6800E,321,29.627,34.3719
9459,2004/6/28,18:55:00,00-35.6200N,150-47.5600E,321,29.553,34.3652
9460,2004/6/28,18:56:00,00-35.7700N,150-47.4400E,322,29.535,34.3607
9461,2004/6/28,18:57:00,00-35.9300N,150-47.3300E,325,29.699,34.36
9462,2004/6/28,18:58:00,00-36.0900N,150-47.2200E,324,29.775,34.3582
9463,2004/6/28,18:59:00,00-36.2500N,150-47.1000E,322,29.768,34.3421
9464,2004/6/28,19:00:00,00-36.4000N,150-46.9800E,320,29.764,34.333
9465,2004/6/28,19:01:00,00-36.5500N,150-46.8600E,321,29.743,34.3159
9466,2004/6/28,19:02:00,00-36.7000N,150-46.7500E,323,29.754,34.3128
9467,2004/6/28,19:03:00,00-36.8600N,150-46.6300E,323,29.748,34.2917
9468,2004/6/28,19:04:00,00-37.0100N,150-46.5200E,322,29.729,34.2738
9469,2004/6/28,19:05:00,00-37.1700N,150-46.4000E,322,29.612,34.2527
9470,2004/6/28,19:06:00,00-37.3200N,150-46.2900E,322,29.518,34.2393
9471,2004/6/28,19:07:00,00-37.4700N,150-46.1700E,323,29.478,34.2224
9472,2004/6/28,19:08:00,00-37.6300N,150-46.0600E,323,29.417,34.2027
9473,2004/6/28,19:09:00,00-37.7700N,150-45.9500E,323,29.373,34.1901
9474,2004/6/28,19:10:00,00-37.9300N,150-45.8400E,322,29.348,34.1658
9475,2004/6/28,19:11:00,00-38.0900N,150-45.7100E,322,29.335,34.1542
9476,2004/6/28,19:12:00,00-38.2400N,150-45.6000E,323,29.326,34.1495
9477,2004/6/28,19:13:00,00-38.3900N,150-45.4900E,322,29.316,34.1487
9478,2004/6/28,19:14:00,00-38.5400N,150-45.3700E,323,29.305,34.1492
9479,2004/6/28,19:15:00,00-38.6900N,150-45.2600E,323,29.304,34.1471
9480,2004/6/28,19:16:00,00-38.8400N,150-45.1500E,323,29.299,34.1472
9481,2004/6/28,19:17:00,00-38.9900N,150-45.0400E,323,29.296,34.1473
9482,2004/6/28,19:18:00,00-39.1500N,150-44.9300E,323,29.292,34.1491
9483,2004/6/28,19:19:00,00-39.3000N,150-44.8100E,322,29.288,34.15
9484,2004/6/28,19:20:00,00-39.4500N,150-44.7000E,322,29.283,34.1476
9485,2004/6/28,19:21:00,00-39.6000N,150-44.5900E,322,29.283,34.1491
9486,2004/6/28,19:22:00,00-39.7500N,150-44.4800E,323,29.281,34.1458
9487,2004/6/28,19:23:00,00-39.9000N,150-44.3700E,323,29.283,34.1446
9488,2004/6/28,19:24:00,00-40.0500N,150-44.2600E,323,29.293,34.1431
9489,2004/6/28,19:25:00,00-40.2000N,150-44.1500E,323,29.297,34.1389
9490,2004/6/28,19:26:00,00-40.3500N,150-44.0400E,323,29.295,34.1365
9491,2004/6/28,19:27:00,00-40.5000N,150-43.9300E,323,29.307,34.1363
9492,2004/6/28,19:28:00,00-40.6500N,150-43.8200E,323,29.303,34.1365
9493,2004/6/28,19:29:00,00-40.8100N,150-43.7100E,324,29.311,34.134
9494,2004/6/28,19:30:00,00-40.9600N,150-43.6000E,323,29.338,34.1343
9495,2004/6/28,19:31:00,00-41.1100N,150-43.4900E,323,29.402,34.1343
9496,2004/6/28,19:32:00,00-41.2700N,150-43.3700E,322,29.416,34.1369
9497,2004/6/28,19:33:00,00-41.4200N,150-43.2500E,323,29.42,34.1392
9498,2004/6/28,19:34:00,00-41.5700N,150-43.1400E,323,29.402,34.1399
9499,2004/6/28,19:35:00,00-41.7200N,150-43.0300E,324,29.363,34.1376
9500,2004/6/28,19:36:00,00-41.8800N,150-42.9200E,323,29.365,34.1345
9501,2004/6/28,19:37:00,00-42.0300N,150-42.8100E,323,29.356,34.1333
9502,2004/6/28,19:38:00,00-42.1800N,150-42.7000E,323,29.348,34.1332
9503,2004/6/28,19:39:00,00-42.3400N,150-42.5900E,324,29.339,34.1331
9504,2004/6/28,19:40:00,00-42.4900N,150-42.4700E,323,29.345,34.1294
9505,2004/6/28,19:41:00,00-42.6400N,150-42.3600E,323,29.326,34.1258
9506,2004/6/28,19:42:00,00-42.8000N,150-42.2500E,323,29.328,34.1248
9507,2004/6/28,19:43:00,00-42.9500N,150-42.1400E,323,29.307,34.1242
9508,2004/6/28,19:44:00,00-43.1000N,150-42.0300E,322,29.307,34.1229
9509,2004/6/28,19:45:00,00-43.2500N,150-41.9100E,323,29.291,34.1237
9510,2004/6/28,19:46:00,00-43.4000N,150-41.8100E,324,29.283,34.1231
9511,2004/6/28,19:47:00,00-43.5600N,150-41.6900E,324,29.274,34.1245
9512,2004/6/28,19:48:00,00-43.7100N,150-41.5800E,323,29.289,34.123
9513,2004/6/28,19:49:00,00-43.8600N,150-41.4700E,323,29.28,34.1233
9514,2004/6/28,19:50:00,00-44.0200N,150-41.3600E,323,29.277,34.1237
9515,2004/6/28,19:51:00,00-44.1700N,150-41.2500E,323,29.288,34.1262
9516,2004/6/28,19:52:00,00-44.3200N,150-41.1400E,322,29.296,34.1262
9517,2004/6/28,19:53:00,00-44.4700N,150-41.0200E,323,29.317,34.1288
9518,2004/6/28,19:54:00,00-44.6300N,150-40.9000E,323,29.321,34.1306
9519,2004/6/28,19:55:00,00-44.7800N,150-40.7900E,323,29.326,34.1333
9520,2004/6/28,19:56:00,00-44.9300N,150-40.6800E,323,29.285,34.1347
9521,2004/6/28,19:57:00,00-45.0800N,150-40.5700E,323,29.331,34.1354
9522,2004/6/28,19:58:00,00-45.2300N,150-40.4600E,322,29.363,34.1358
9523,2004/6/28,19:59:00,00-45.3900N,150-40.3400E,323,29.332,34.1409
9524,2004/6/28,20:00:00,00-45.5400N,150-40.2300E,323,29.341,34.1425
9525,2004/6/28,20:01:00,00-45.6900N,150-40.1200E,323,29.316,34.1426
9526,2004/6/28,20:02:00,00-45.8400N,150-40.0100E,323,29.299,34.1464
9527,2004/6/28,20:03:00,00-45.9900N,150-39.8900E,321,29.295,34.1475
9528,2004/6/28,20:04:00,00-46.1500N,150-39.7800E,326,29.271,34.1499
9529,2004/6/28,20:05:00,00-46.3100N,150-39.6800E,329,29.267,34.1533
9530,2004/6/28,20:06:00,00-46.4800N,150-39.5900E,329,29.283,34.1533
9531,2004/6/28,20:07:00,00-46.6400N,150-39.4900E,328,29.269,34.1566
9532,2004/6/28,20:08:00,00-46.8000N,150-39.3900E,328,29.295,34.1586
9533,2004/6/28,20:09:00,00-46.9600N,150-39.2900E,328,29.331,34.1606
9534,2004/6/28,20:10:00,00-47.1300N,150-39.2000E,328,29.359,34.1639
9535,2004/6/28,20:11:00,00-47.2900N,150-39.1000E,328,29.363,34.1679
9536,2004/6/28,20:12:00,00-47.4500N,150-39.0000E,328,29.383,34.1717
9537,2004/6/28,20:13:00,00-47.6100N,150-38.9000E,328,29.404,34.1741
9538,2004/6/28,20:14:00,00-47.7800N,150-38.8000E,328,29.423,34.1787
9539,2004/6/28,20:15:00,00-47.9400N,150-38.7000E,328,29.454,34.1859
9540,2004/6/28,20:16:00,00-48.1200N,150-38.5900E,327,29.462,34.1918
9541,2004/6/28,20:17:00,00-48.2800N,150-38.4900E,326,29.466,34.1979
9542,2004/6/28,20:18:00,00-48.4400N,150-38.3800E,327,29.474,34.2016
9543,2004/6/28,20:19:00,00-48.6000N,150-38.2800E,328,29.489,34.202
9544,2004/6/28,20:20:00,00-48.7600N,150-38.1900E,328,29.501,34.2026
9545,2004/6/28,20:21:00,00-48.9200N,150-38.0900E,327,29.503,34.2033
9546,2004/6/28,20:22:00,00-49.0900N,150-37.9800E,327,29.495,34.2063
9547,2004/6/28,20:23:00,00-49.2500N,150-37.8800E,326,29.468,34.2091
9548,2004/6/28,20:24:00,00-49.4000N,150-37.7800E,327,29.475,34.2117
9549,2004/6/28,20:25:00,00-49.5600N,150-37.6700E,327,29.462,34.216
9550,2004/6/28,20:26:00,00-49.7300N,150-37.5700E,327,29.453,34.2269
9551,2004/6/28,20:27:00,00-49.8900N,150-37.4600E,326,29.463,34.2338
9552,2004/6/28,20:28:00,00-50.0500N,150-37.3600E,326,29.476,34.2303
9553,2004/6/28,20:29:00,00-50.2100N,150-37.2500E,326,29.47,34.2268
9554,2004/6/28,20:30:00,00-50.3700N,150-37.1400E,326,29.448,34.2248
9555,2004/6/28,20:31:00,00-50.5300N,150-37.0400E,326,29.396,34.2221
9556,2004/6/28,20:32:00,00-50.7000N,150-36.9300E,326,29.32,34.2197
9557,2004/6/28,20:33:00,00-50.8600N,150-36.8200E,325,29.268,34.2218
9558,2004/6/28,20:34:00,00-51.0200N,150-36.7100E,324,29.262,34.2184
9559,2004/6/28,20:35:00,00-51.1800N,150-36.5900E,325,29.265,34.2104
9560,2004/6/28,20:36:00,00-51.3400N,150-36.4800E,325,29.274,34.2056
9561,2004/6/28,20:37:00,00-51.5100N,150-36.3700E,325,29.327,34.2005
9562,2004/6/28,20:38:00,00-51.6800N,150-36.2500E,325,29.367,34.1995
9563,2004/6/28,20:39:00,00-51.8400N,150-36.1400E,325,29.397,34.2003
9564,2004/6/28,20:40:00,00-52.0000N,150-36.0300E,325,29.423,34.2001
9565,2004/6/28,20:41:00,00-52.1700N,150-35.9200E,325,29.436,34.1988
9566,2004/6/28,20:42:00,00-52.3300N,150-35.8000E,325,29.449,34.2011
9567,2004/6/28,20:43:00,00-52.4900N,150-35.6900E,325,29.458,34.2008
9568,2004/6/28,20:44:00,00-52.6500N,150-35.5800E,325,29.467,34.1998
9569,2004/6/28,20:45:00,00-52.8200N,150-35.4700E,325,29.475,34.1988
9570,2004/6/28,20:46:00,00-52.9800N,150-35.3600E,325,29.486,34.1981
9571,2004/6/28,20:47:00,00-53.1400N,150-35.2500E,325,29.491,34.1988
9572,2004/6/28,20:48:00,00-53.3000N,150-35.1400E,323,29.498,34.1978
9573,2004/6/28,20:49:00,00-53.4500N,150-35.0200E,322,29.496,34.1978
9574,2004/6/28,20:50:00,00-53.6000N,150-34.9100E,322,29.485,34.1959
9575,2004/6/28,20:51:00,00-53.7600N,150-34.7900E,324,29.491,34.1902
9576,2004/6/28,20:52:00,00-53.9200N,150-34.6800E,326,29.494,34.1792
9577,2004/6/28,20:53:00,00-54.0700N,150-34.5800E,325,29.502,34.1705
9578,2004/6/28,20:54:00,00-54.2400N,150-34.4700E,325,29.502,34.1687
9579,2004/6/28,20:55:00,00-54.4000N,150-34.3500E,324,29.501,34.1683
9580,2004/6/28,20:56:00,00-54.5500N,150-34.2400E,323,29.495,34.1652
9581,2004/6/28,20:57:00,00-54.7100N,150-34.1300E,324,29.528,34.1559
9582,2004/6/28,20:58:00,00-54.8700N,150-34.0200E,325,29.598,34.1401
9583,2004/6/28,20:59:00,00-55.0400N,150-33.9000E,324,29.622,34.1611
9584,2004/6/28,21:00:00,00-55.1900N,150-33.7900E,324,29.622,34.1695
9585,2004/6/28,21:01:00,00-55.3500N,150-33.6700E,324,29.603,34.1687
9586,2004/6/28,21:02:00,00-55.5000N,150-33.5600E,323,29.579,34.1601
9587,2004/6/28,21:03:00,00-55.6600N,150-33.4500E,324,29.548,34.1503
9588,2004/6/28,21:04:00,00-55.8100N,150-33.3400E,324,29.504,34.1384
9589,2004/6/28,21:05:00,00-55.9700N,150-33.2300E,324,29.455,34.1248
9590,2004/6/28,21:06:00,00-56.1300N,150-33.1200E,324,29.449,34.1025
9591,2004/6/28,21:07:00,00-56.2800N,150-33.0000E,324,29.398,34.0851
9592,2004/6/28,21:08:00,00-56.4400N,150-32.8900E,323,29.368,34.0783